Location: North Smoke Tower Site
(30.5430°N, 82.3390°W)
Time: 04:34:29
(UTC-04:00)

Cosmos 1980 Rocket - Visible Passes

Search period start: 24 August 2016 00:00
Search period end: 03 September 2016 00:00
Orbit: 828 x 852 km, 71.0° (Epoch: 23 August)

Date Brightness Start Highest point End Pass type
(mag) Time Alt. Az. Time Alt. Az. Time Alt. Az.
24 Aug 3.2 22:44:07 38° N 22:44:07 38° N 22:47:37 10° NNE visible
25 Aug 2.3 22:26:51 70° NNW 22:26:51 70° NNW 22:31:58 10° NNE visible
26 Aug 2.1 22:04:57 10° SSW 22:10:36 84° WNW 22:16:20 10° NNE visible
27 Aug 2.1 21:49:18 10° SSW 21:54:57 90° WNW 22:00:40 10° NNE visible
28 Aug 2.1 21:33:39 10° SSW 21:39:18 84° ESE 21:45:01 10° NNE visible
28 Aug 5.2 23:22:37 10° WNW 23:23:57 11° NW 23:25:18 10° NW visible
29 Aug 5.2 06:35:10 10° NNE 06:38:26 15° ENE 06:41:40 10° E visible
29 Aug 2.1 21:18:00 10° SSW 21:23:39 79° ESE 21:29:21 10° NNE visible
29 Aug 5.2 23:06:17 10° WNW 23:08:15 12° WNW 23:10:12 10° NW visible
30 Aug 5.3 06:19:46 10° NNE 06:22:43 14° ENE 06:25:40 10° E visible
30 Aug 2.1 21:02:23 10° SSW 21:08:00 73° ESE 21:13:41 10° NNE visible
30 Aug 5.2 22:50:08 10° W 22:52:32 13° WNW 22:54:57 10° NNW visible
31 Aug 5.4 06:04:23 10° NNE 06:07:01 13° ENE 06:09:38 10° E visible
31 Aug 2.1 20:46:45 10° S 20:52:21 68° ESE 20:58:00 10° NNE visible
31 Aug 5.1 22:34:03 10° W 22:36:49 14° WNW 22:39:37 10° NNW visible
01 Sep 5.4 05:49:05 10° NNE 05:51:19 12° ENE 05:53:31 10° E visible
01 Sep 2.2 20:31:09 10° S 20:36:43 63° ESE 20:42:20 10° NNE visible
01 Sep 5.1 22:18:02 10° W 22:21:07 15° WNW 22:24:14 10° NNW visible
02 Sep 5.5 05:33:53 10° NE 05:35:36 11° NE 05:37:19 10° ENE visible
02 Sep 2.3 20:15:33 10° S 20:21:04 58° ESE 20:26:39 10° NNE visible
02 Sep 5.1 22:02:04 10° W 22:05:25 16° WNW 22:08:47 10° NNW visible
